BCS80A LIMC-EDDP

Flight info

Callsign BCS80A
Flight time 1h 1m
Altitude 28000
Route PEPAG DCT ABESI N851 UTAVO DCT ROLSA DCT LOKTA DCT ETAGO DCT IBAGA T435 PIBAD T954 GOXLI GOXLI1R
Aircraft B738/M-SDE2E3FGHIRWXY/LB1

Departure

Time 2026-05-07 17:29
Airport Milan Malpensa International Airport (LIMC)

Arrival

Time 2026-05-07 18:30
Airport Leipzig/Halle Airport (EDDP)
Time Latitude Longitude Altitude Speed Heading
2026-05-07 17:09 45.60941 8.72029 734 ft 0 kts 259°
2026-05-07 17:19 45.60941 8.72031 734 ft 2 kts 259°
2026-05-07 17:19 45.60945 8.72066 735 ft 4 kts 259°
2026-05-07 17:19 45.60950 8.72104 735 ft 4 kts 259°
2026-05-07 17:20 45.60953 8.72126 735 ft 3 kts 259°
2026-05-07 17:20 45.60969 8.72162 733 ft 4 kts 188°
2026-05-07 17:20 45.60991 8.72161 735 ft 1 kts 169°
2026-05-07 17:20 45.60995 8.72160 735 ft 0 kts 169°
2026-05-07 17:22 45.60980 8.72164 733 ft 7 kts 169°
2026-05-07 17:22 45.60916 8.72181 736 ft 10 kts 169°
2026-05-07 17:23 45.60849 8.72201 736 ft 10 kts 169°
2026-05-07 17:23 45.60777 8.72221 736 ft 11 kts 167°
2026-05-07 17:23 45.60695 8.72244 734 ft 12 kts 169°
2026-05-07 17:23 45.60630 8.72304 736 ft 12 kts 92°
2026-05-07 17:24 45.60644 8.72423 736 ft 13 kts 90°
2026-05-07 17:24 45.60633 8.72578 736 ft 19 kts 96°
2026-05-07 17:24 45.60617 8.72789 736 ft 23 kts 96°
2026-05-07 17:24 45.60599 8.73013 736 ft 22 kts 97°
2026-05-07 17:25 45.60606 8.73227 735 ft 22 kts 57°
2026-05-07 17:25 45.60737 8.73328 736 ft 21 kts 22°
2026-05-07 17:25 45.60872 8.73406 735 ft 21 kts 22°
2026-05-07 17:25 45.60987 8.73383 736 ft 16 kts 348°
2026-05-07 17:26 45.61097 8.73351 735 ft 16 kts 348°
2026-05-07 17:26 45.61215 8.73318 736 ft 19 kts 349°
2026-05-07 17:26 45.61350 8.73280 736 ft 21 kts 349°
2026-05-07 17:26 45.61488 8.73241 735 ft 20 kts 349°
2026-05-07 17:27 45.61605 8.73241 735 ft 16 kts 51°
2026-05-07 17:27 45.61633 8.73391 736 ft 15 kts 83°
2026-05-07 17:27 45.61595 8.73528 735 ft 15 kts 108°
2026-05-07 17:27 45.61594 8.73670 736 ft 14 kts 78°
2026-05-07 17:28 45.61644 8.73726 736 ft 9 kts
2026-05-07 17:28 45.61812 8.73683 735 ft 55 kts 349°
2026-05-07 17:28 45.62427 8.73512 737 ft 123 kts 349°
2026-05-07 17:28 45.63456 8.73227 814 ft 170 kts 349°
2026-05-07 17:29 45.64652 8.72893 1444 ft 178 kts 348°
2026-05-07 17:29 45.65851 8.72654 2274 ft 178 kts
2026-05-07 17:29 45.66967 8.73471 2843 ft 186 kts 46°
2026-05-07 17:29 45.67652 8.75066 3388 ft 202 kts 79°
2026-05-07 17:30 45.67555 8.77149 3607 ft 222 kts 102°
2026-05-07 17:30 45.67249 8.79382 4039 ft 232 kts 102°
2026-05-07 17:30 45.66947 8.81679 4670 ft 238 kts 101°
2026-05-07 17:30 45.66655 8.84014 5456 ft 238 kts 101°
2026-05-07 17:31 45.66374 8.86354 6232 ft 240 kts 100°
2026-05-07 17:31 45.66217 8.88770 6734 ft 255 kts 83°
2026-05-07 17:31 45.66990 8.91140 7014 ft 276 kts 45°
2026-05-07 17:31 45.68653 8.92496 7678 ft 280 kts 13°
2026-05-07 17:32 45.70566 8.93004 8483 ft 280 kts
2026-05-07 17:32 45.72501 8.93442 9273 ft 283 kts
2026-05-07 17:32 45.74455 8.93881 10034 ft 285 kts
2026-05-07 17:32 45.76459 8.94341 10416 ft 302 kts
2026-05-07 17:33 45.78612 8.94849 10588 ft 325 kts
2026-05-07 17:33 45.80916 8.95406 10752 ft 346 kts
2026-05-07 17:33 45.83256 8.95982 10971 ft 363 kts
2026-05-07 17:33 45.84291 8.96240 11173 ft 366 kts
2026-05-07 17:34 45.86306 8.96746 11647 ft 370 kts
2026-05-07 17:34 45.88510 8.97302 12229 ft 373 kts
2026-05-07 17:34 45.91079 8.97951 12886 ft 378 kts
2026-05-07 17:34 45.93646 8.98602 13547 ft 382 kts
2026-05-07 17:35 45.96278 8.99271 14189 ft 386 kts
2026-05-07 17:35 45.98970 8.99956 14851 ft 390 kts
2026-05-07 17:35 46.01652 9.00637 15466 ft 394 kts
2026-05-07 17:35 46.04372 9.01329 16088 ft 398 kts
2026-05-07 17:36 46.07109 9.02025 16748 ft 402 kts
2026-05-07 17:36 46.09875 9.02720 17360 ft 406 kts
2026-05-07 17:36 46.12673 9.03437 17945 ft 410 kts
2026-05-07 17:36 46.15499 9.04094 18512 ft 413 kts
2026-05-07 17:37 46.18329 9.04150 19047 ft 413 kts 353°
2026-05-07 17:37 46.21195 9.03746 19637 ft 414 kts 351°
2026-05-07 17:37 46.24071 9.03294 20173 ft 417 kts 351°
2026-05-07 17:37 46.26967 9.02848 20729 ft 420 kts 351°
2026-05-07 17:38 46.29883 9.02423 21270 ft 423 kts 352°
2026-05-07 17:38 46.32863 9.02009 21786 ft 426 kts 352°
2026-05-07 17:38 46.35785 9.01612 22242 ft 429 kts 352°
2026-05-07 17:38 46.38768 9.01210 22758 ft 431 kts 352°
2026-05-07 17:39 46.41802 9.00799 23285 ft 434 kts 352°
2026-05-07 17:39 46.44777 9.00395 23646 ft 437 kts 352°
2026-05-07 17:39 46.47814 8.99983 23990 ft 440 kts 352°
2026-05-07 17:39 46.50867 8.99571 24437 ft 441 kts 351°
2026-05-07 17:40 46.53929 8.99157 24858 ft 442 kts 351°
2026-05-07 17:40 46.56999 8.98742 25227 ft 445 kts 351°
2026-05-07 17:40 46.60094 8.98323 25583 ft 447 kts 351°
2026-05-07 17:40 46.63197 8.97903 25932 ft 450 kts 351°
2026-05-07 17:41 46.66325 8.97480 26257 ft 452 kts 351°
2026-05-07 17:41 46.69440 8.97067 26616 ft 454 kts 351°
2026-05-07 17:41 46.72618 8.96640 26972 ft 456 kts 351°
2026-05-07 17:41 46.75786 8.96205 27257 ft 459 kts 351°
2026-05-07 17:42 46.78974 8.95768 27432 ft 462 kts 351°
2026-05-07 17:42 46.82171 8.95331 27868 ft 462 kts 350°
2026-05-07 17:42 46.85372 8.94892 28232 ft 462 kts 351°
2026-05-07 17:42 46.88580 8.94453 28560 ft 463 kts 350°
2026-05-07 17:43 46.91781 8.94015 29021 ft 461 kts 350°
2026-05-07 17:43 46.94965 8.93582 29571 ft 458 kts 350°
2026-05-07 17:43 46.98134 8.93148 30075 ft 456 kts 350°
2026-05-07 17:43 47.01289 8.92705 30398 ft 456 kts 349°
2026-05-07 17:44 47.04448 8.92269 30696 ft 456 kts 350°
2026-05-07 17:44 47.07601 8.91839 31105 ft 454 kts 350°
2026-05-07 17:44 47.10742 8.91412 31478 ft 453 kts 350°
2026-05-07 17:44 47.13882 8.90981 31762 ft 453 kts 350°
2026-05-07 17:45 47.17024 8.90549 32036 ft 454 kts 350°
2026-05-07 17:45 47.20166 8.90116 32338 ft 454 kts 350°
2026-05-07 17:45 47.23310 8.89682 32683 ft 453 kts 349°
2026-05-07 17:45 47.26445 8.89253 33016 ft 453 kts 351°
2026-05-07 17:46 47.29610 8.89215 33330 ft 458 kts 359°
2026-05-07 17:46 47.32771 8.89923 33602 ft 463 kts
2026-05-07 17:46 47.35914 8.90964 33897 ft 463 kts
2026-05-07 17:46 47.39055 8.92056 34107 ft 464 kts
2026-05-07 17:47 47.42207 8.93156 34291 ft 465 kts
2026-05-07 17:47 47.45358 8.94245 34553 ft 464 kts
2026-05-07 17:47 47.48502 8.95315 34841 ft 463 kts
2026-05-07 17:47 47.51598 8.96356 35070 ft 463 kts
2026-05-07 17:48 47.54785 8.97419 35233 ft 464 kts
2026-05-07 17:48 47.57901 8.98456 35410 ft 465 kts
2026-05-07 17:48 47.61059 8.99506 35633 ft 465 kts
2026-05-07 17:48 47.64216 9.00559 35854 ft 465 kts
2026-05-07 17:49 47.67372 9.01613 36075 ft 465 kts
2026-05-07 17:49 47.70530 9.02670 36326 ft 464 kts
2026-05-07 17:49 47.73682 9.03726 36516 ft 465 kts
2026-05-07 17:49 47.76842 9.04786 36653 ft 466 kts
2026-05-07 17:50 47.80008 9.05848 36818 ft 467 kts
2026-05-07 17:50 47.83176 9.06913 37024 ft 467 kts
2026-05-07 17:50 47.86345 9.07983 37242 ft 466 kts
2026-05-07 17:50 47.89509 9.09051 37397 ft 467 kts
2026-05-07 17:51 47.92683 9.10124 37562 ft 468 kts
2026-05-07 17:51 47.95861 9.11200 37748 ft 468 kts
2026-05-07 17:51 47.99035 9.12276 37956 ft 468 kts
2026-05-07 17:51 48.02208 9.13353 38129 ft 468 kts
2026-05-07 17:52 48.05381 9.14432 38274 ft 468 kts
2026-05-07 17:52 48.08563 9.15516 38440 ft 469 kts
2026-05-07 17:52 48.11746 9.16601 38608 ft 469 kts
2026-05-07 17:52 48.14923 9.17683 38741 ft 469 kts
2026-05-07 17:53 48.21248 9.20252 38948 ft 472 kts 14°
2026-05-07 17:53 48.27490 9.23411 39039 ft 475 kts 15°
2026-05-07 17:54 48.33751 9.26603 39049 ft 475 kts 15°
2026-05-07 17:54 48.40020 9.29721 39045 ft 474 kts 15°
2026-05-07 17:55 48.46283 9.32808 39058 ft 473 kts 15°
2026-05-07 17:55 48.52534 9.35898 39041 ft 472 kts 15°
2026-05-07 17:56 48.58774 9.38995 39055 ft 472 kts 15°
2026-05-07 17:56 48.65013 9.42104 39043 ft 472 kts 15°
2026-05-07 17:57 48.70193 9.44689 39046 ft 472 kts 16°
2026-05-07 17:57 48.74218 9.47362 39042 ft 475 kts 28°
2026-05-07 17:57 48.76980 9.50120 39064 ft 475 kts 32°
2026-05-07 17:58 48.82341 9.55902 39057 ft 476 kts 33°
2026-05-07 17:58 48.87735 9.61748 39043 ft 477 kts 33°
2026-05-07 17:59 48.93157 9.67560 39056 ft 477 kts 33°
2026-05-07 17:59 48.98587 9.73358 39041 ft 477 kts 33°
2026-05-07 18:00 49.04019 9.79166 39050 ft 477 kts 33°
2026-05-07 18:00 49.09455 9.84998 39047 ft 477 kts 33°
2026-05-07 18:01 49.14884 9.90841 39055 ft 478 kts 33°
2026-05-07 18:01 49.20324 9.96712 39049 ft 479 kts 33°
2026-05-07 18:02 49.28489 10.05554 38744 ft 484 kts 33°
2026-05-07 18:02 49.31242 10.08543 38192 ft 484 kts 33°
2026-05-07 18:03 49.33971 10.11512 37659 ft 479 kts 33°
2026-05-07 18:03 49.36674 10.14459 37133 ft 474 kts 33°
2026-05-07 18:03 49.39350 10.17379 36623 ft 470 kts 33°
2026-05-07 18:03 49.41998 10.20272 36124 ft 465 kts 33°
2026-05-07 18:04 49.44627 10.23148 35633 ft 461 kts 33°
2026-05-07 18:04 49.47233 10.26001 35163 ft 460 kts 33°
2026-05-07 18:04 49.49849 10.28868 34691 ft 462 kts 33°
2026-05-07 18:04 49.52474 10.31745 34258 ft 465 kts 33°
2026-05-07 18:05 49.55220 10.34343 33739 ft 462 kts 26°
2026-05-07 18:05 49.58069 10.36608 33195 ft 460 kts 24°
2026-05-07 18:05 49.60936 10.38771 32655 ft 458 kts 24°
2026-05-07 18:05 49.63801 10.40911 32123 ft 457 kts 24°
2026-05-07 18:06 49.66610 10.43032 31625 ft 456 kts 24°
2026-05-07 18:06 49.69454 10.45211 31182 ft 457 kts 24°
2026-05-07 18:06 49.72297 10.47420 31110 ft 458 kts 25°
2026-05-07 18:07 49.77998 10.51904 31058 ft 462 kts 25°
2026-05-07 18:07 49.83723 10.56439 31040 ft 462 kts 25°
2026-05-07 18:08 49.88502 10.60234 31044 ft 460 kts 25°
2026-05-07 18:08 49.94192 10.64760 31050 ft 459 kts 26°
2026-05-07 18:09 49.99861 10.69278 30934 ft 455 kts 26°
2026-05-07 18:09 50.02660 10.71515 30644 ft 450 kts 26°
2026-05-07 18:09 50.05444 10.73742 30041 ft 450 kts 26°
2026-05-07 18:09 50.08215 10.75962 29388 ft 444 kts 26°
2026-05-07 18:10 50.10944 10.78151 28735 ft 439 kts 26°
2026-05-07 18:10 50.13649 10.80324 28106 ft 435 kts 26°
2026-05-07 18:10 50.16324 10.82476 27486 ft 431 kts 26°
2026-05-07 18:10 50.18973 10.84611 26882 ft 427 kts 26°
2026-05-07 18:11 50.21606 10.86735 26291 ft 424 kts 26°
2026-05-07 18:11 50.24216 10.88842 25711 ft 421 kts 26°
2026-05-07 18:11 50.26810 10.90938 25136 ft 418 kts 26°
2026-05-07 18:11 50.29385 10.93021 24576 ft 416 kts 26°
2026-05-07 18:12 50.31908 10.95065 24037 ft 413 kts 26°
2026-05-07 18:12 50.34454 10.97130 23473 ft 411 kts 26°
2026-05-07 18:12 50.36986 10.99186 22848 ft 409 kts 26°
2026-05-07 18:12 50.39500 11.01231 22228 ft 407 kts 26°
2026-05-07 18:13 50.42009 11.03274 21624 ft 405 kts 26°
2026-05-07 18:13 50.44500 11.05304 21025 ft 402 kts 26°
2026-05-07 18:13 50.46974 11.07323 20441 ft 400 kts 26°
2026-05-07 18:13 50.49436 11.09336 19873 ft 398 kts 26°
2026-05-07 18:14 50.51879 11.11334 19373 ft 394 kts 26°
2026-05-07 18:14 50.54286 11.13308 19077 ft 385 kts 26°
2026-05-07 18:14 50.56620 11.15223 19061 ft 375 kts 26°
2026-05-07 18:14 50.58942 11.17127 19064 ft 378 kts 26°
2026-05-07 18:15 50.61285 11.19050 19064 ft 382 kts 26°
2026-05-07 18:15 50.63641 11.20986 19062 ft 382 kts 26°
2026-05-07 18:15 50.66022 11.22828 19060 ft 381 kts 24°
2026-05-07 18:15 50.68424 11.24561 19057 ft 380 kts 23°
2026-05-07 18:16 50.70836 11.26269 19053 ft 379 kts 22°
2026-05-07 18:16 50.73240 11.27976 19057 ft 379 kts 23°
2026-05-07 18:16 50.75597 11.29834 19049 ft 380 kts 32°
2026-05-07 18:16 50.77732 11.32332 18588 ft 383 kts 37°
2026-05-07 18:17 50.79769 11.34997 17960 ft 376 kts 39°
2026-05-07 18:17 50.81745 11.37651 17290 ft 369 kts 39°
2026-05-07 18:17 50.83680 11.40265 16663 ft 363 kts 39°
2026-05-07 18:17 50.85594 11.42858 16142 ft 363 kts 39°
2026-05-07 18:18 50.87523 11.45474 15591 ft 367 kts 39°
2026-05-07 18:18 50.89463 11.48106 15051 ft 367 kts 39°
2026-05-07 18:18 50.91379 11.50709 14497 ft 358 kts 39°
2026-05-07 18:18 50.93248 11.53252 13963 ft 350 kts 39°
2026-05-07 18:19 50.95080 11.55748 13384 ft 345 kts 39°
2026-05-07 18:19 50.96866 11.58184 12814 ft 342 kts 39°
2026-05-07 18:19 50.98659 11.60634 12248 ft 338 kts 39°
2026-05-07 18:19 51.00423 11.63053 11698 ft 332 kts 39°
2026-05-07 18:20 51.02168 11.65455 11306 ft 324 kts 39°
2026-05-07 18:20 51.03836 11.67756 10967 ft 320 kts 39°
2026-05-07 18:20 51.05510 11.70071 10618 ft 317 kts 39°
2026-05-07 18:20 51.07164 11.72362 10280 ft 314 kts 39°
2026-05-07 18:21 51.08792 11.74622 10112 ft 305 kts 39°
2026-05-07 18:21 51.10353 11.76799 10074 ft 292 kts 39°
2026-05-07 18:21 51.11853 11.78899 10068 ft 284 kts 39°
2026-05-07 18:21 51.13326 11.80965 10077 ft 283 kts 39°
2026-05-07 18:22 51.14815 11.83055 10081 ft 287 kts 39°
2026-05-07 18:22 51.15808 11.84449 10085 ft 288 kts 39°
2026-05-07 18:22 51.17826 11.87282 9717 ft 292 kts 39°
2026-05-07 18:22 51.19400 11.89325 9175 ft 290 kts 27°
2026-05-07 18:23 51.21296 11.90124 8647 ft 282 kts 356°
2026-05-07 18:23 51.23121 11.89176 8144 ft 278 kts 325°
2026-05-07 18:23 51.24566 11.87157 7658 ft 275 kts 316°
2026-05-07 18:23 51.25906 11.84995 7157 ft 273 kts 316°
2026-05-07 18:24 51.27495 11.83433 6629 ft 270 kts 346°
2026-05-07 18:24 51.29344 11.83049 6151 ft 266 kts 354°
2026-05-07 18:24 51.31182 11.82778 5624 ft 265 kts 354°
2026-05-07 18:24 51.33018 11.82501 5121 ft 264 kts 354°
2026-05-07 18:25 51.34824 11.82501 4684 ft 259 kts 15°
2026-05-07 18:25 51.36311 11.83966 4374 ft 251 kts 49°
2026-05-07 18:25 51.37319 11.86188 4081 ft 243 kts 54°
2026-05-07 18:25 51.38269 11.88384 3763 ft 238 kts 54°
2026-05-07 18:26 51.39214 11.90565 3472 ft 239 kts 55°
2026-05-07 18:26 51.39875 11.92985 3127 ft 241 kts 81°
2026-05-07 18:26 51.40006 11.95579 3076 ft 226 kts 84°
2026-05-07 18:26 51.40139 11.98011 3000 ft 212 kts 84°
2026-05-07 18:27 51.40248 12.00270 2953 ft 197 kts 83°
2026-05-07 18:27 51.40346 12.02426 2724 ft 191 kts 83°
2026-05-07 18:27 51.40439 12.04528 2456 ft 187 kts 83°
2026-05-07 18:27 51.40531 12.06586 2199 ft 182 kts 84°
2026-05-07 18:28 51.40618 12.08539 1968 ft 170 kts 83°
2026-05-07 18:28 51.40701 12.10379 1736 ft 163 kts 84°
2026-05-07 18:28 51.40779 12.12152 1545 ft 155 kts 84°
2026-05-07 18:28 51.40856 12.13848 1299 ft 151 kts 84°
2026-05-07 18:29 51.40936 12.15519 1108 ft 149 kts 83°
2026-05-07 18:29 51.41010 12.17202 908 ft 153 kts 83°
2026-05-07 18:29 51.41092 12.18865 675 ft 150 kts 83°
2026-05-07 18:29 51.41165 12.20512 483 ft 148 kts 83°
2026-05-07 18:30 51.41236 12.22049 455 ft 123 kts 86°
2026-05-07 18:30 51.41288 12.23175 464 ft 79 kts 86°
2026-05-07 18:30 51.41309 12.23654 467 ft 23 kts 85°
2026-05-07 18:30 51.41302 12.23902 466 ft 22 kts 96°
2026-05-07 18:31 51.41254 12.24128 466 ft 20 kts 116°
2026-05-07 18:31 51.41214 12.24258 465 ft 2 kts 116°
2026-05-07 18:31 51.41209 12.24275 465 ft 0 kts 116°
2026-05-07 18:33 51.41204 12.24289 466 ft 5 kts 116°
2026-05-07 18:33 51.41181 12.24363 465 ft 10 kts 120°
2026-05-07 18:34 51.41117 12.24397 466 ft 10 kts 194°
2026-05-07 18:34 51.41081 12.24311 464 ft 10 kts 265°
2026-05-07 18:34 51.41076 12.24198 465 ft 11 kts 266°
2026-05-07 18:34 51.41069 12.24064 465 ft 12 kts 265°
2026-05-07 18:35 51.41063 12.23931 465 ft 12 kts 265°
2026-05-07 18:35 51.41057 12.23802 468 ft 11 kts 266°
2026-05-07 18:35 51.41043 12.23679 467 ft 11 kts 233°
2026-05-07 18:35 51.40974 12.23654 469 ft 8 kts 189°
2026-05-07 18:36 51.40956 12.23576 467 ft 8 kts 265°
2026-05-07 18:36 51.40955 12.23554 468 ft 0 kts 266°